Flag for Brazil Weather past 2 weeks in Belém, Pará, Brazil

Now
77 °F

Clear.


Feels Like: 78 °F
Forecast: 75 / 89 °F
Wind: 12 mph from East

Location: Belem Aeroporto

Current Time: Aug 3, 2015 at 2:06:52 AM

Latest Report: Aug 3, 2015 at 1:00 AM


Visibility: 10 mi

Pressure: 29.92 "Hg

Humidity: 89%

Dew point: 73 °F

Location of BelémLocation

Historic Weather in Belém — Graph

°F

Belém temperature yesterday

Maximum temperature yesterday: 90 °F (at 1:00 PM)
Minimum temperature yesterday: 73 °F (at 6:00 AM)
Average temperature yesterday: 81 °F

Past Weeks' High & Low Weather Summary

 TemperatureHumidityPressure
High90 °F (Jul 19, 1:00 PM)100% (Jul 24, 4:00 AM)30.01 "Hg (Jul 24, 4:00 AM)
Low73 °F (Jul 22, 6:00 AM)52% (Jul 20, 2:00 PM)29.77 "Hg (Jul 31, 5:00 PM)
Average80 °F82%29.91 "Hg
* Reported Midnight between Jul 18 and Jul 19 — Midnight between Aug 2 and Aug 3, Belém, Weather by CustomWeather, © 2015

Note: Actual official high and low records may vary slightly from our data, if they occured in-between our weather recording intervals... More about our weather records

Advertising

Belém weather history for previous 24 hours

 ConditionsComfort  
Time TempWeatherWind HumidityBarometerVisibility
12:00 AM
Mon, Aug 3
77 °FClear.10 mph89%29.95 "Hg10 mi
11:00 PM
Sun, Aug 2
79 °FClear.12 mph84%29.95 "Hg10 mi
10:00 PM79 °FClear.10 mph84%29.92 "Hg10 mi
9:00 PM81 °FPassing clouds.12 mph79%29.89 "HgN/A
8:00 PM82 °FPassing clouds.3 mph84%29.86 "HgN/A
7:00 PM82 °FPassing clouds.7 mph84%29.86 "HgN/A
6:00 PM82 °FScattered clouds.8 mph79%29.83 "HgN/A
5:00 PM84 °FScattered showers. Scattered clouds.10 mph74%29.83 "HgN/A
4:00 PM84 °FScattered clouds.9 mph79%29.83 "HgN/A
3:00 PM86 °FScattered clouds.7 mph70%29.83 "HgN/A
2:00 PM90 °FPartly sunny.8 mph55%29.86 "HgN/A
1:00 PM90 °FPartly sunny.10 mph55%29.86 "HgN/A
12:00 PM88 °FPartly sunny.8 mph62%29.89 "HgN/A
11:00 AM86 °FScattered clouds.7 mph66%29.92 "HgN/A
10:00 AM84 °FPassing clouds.8 mph70%29.92 "HgN/A
9:00 AM81 °FSunny.12 mph79%29.89 "Hg10 mi
8:00 AM79 °FSunny.8 mph84%29.89 "Hg10 mi
7:00 AM75 °FSunny.6 mph89%29.86 "Hg10 mi
6:00 AM73 °FClear.7 mph94%29.86 "Hg10 mi
5:00 AM75 °FClear.7 mph89%29.83 "Hg10 mi
4:00 AM75 °FClear.8 mph89%29.83 "Hg10 mi
3:00 AM75 °FClear.8 mph89%29.86 "Hg10 mi
2:00 AM77 °FClear.10 mph83%29.89 "Hg10 mi
Weather by CustomWeather, © 2015

See weather overviewHow to use our weather pages